KD4TJG Weather Reports


Display with metric or nautical units.
time (UTC)temp
F
wind
direction
speed
MPH
gust
MPH
rain 1hr
in
rain 24hr
in
rain mn
in
humidity
%
barometer
mb
20260505070040 58 220 4.0 8.0 0.00 0.00 0.00 63 1014.1
20260505065521 58 191 4.0 8.0 0.00 0.00 0.00 63 1014.1
20260505065511 58 197 2.0 6.0 0.00 0.00 0.00 63 1016.2
20260505065021 58 219 2.0 6.0 0.00 0.00 0.00 62 1014.1
20260505064537 58 175 1.0 7.0 0.00 0.00 0.00 62 1014.1
20260505064451 58 164 1.0 5.0 0.00 0.00 0.00 62 1016.1
20260505064023 58 154 3.0 7.0 0.00 0.00 0.00 62 1014.0
20260505063521 58 185 2.0 6.0 0.00 0.00 0.00 62 1014.0
20260505063507 58 186 1.0 3.0 0.00 0.00 0.00 61 1016.0
20260505063042 58 165 1.0 3.0 0.00 0.00 0.00 61 1014.0
20260505062521 58 140 1.0 3.0 0.00 0.00 0.00 60 1014.0
20260505062444 59 151 0.0 2.0 0.00 0.00 0.00 60 1016.0
20260505062021 58 171 1.0 5.0 0.00 0.00 0.00 60 1014.1
20260505061542 59 204 1.0 5.0 0.00 0.00 0.00 58 1014.0
20260505061439 59 202 1.0 3.0 0.00 0.00 0.00 58 1016.1
20260505061020 59 146 1.0 4.0 0.00 0.00 0.00 57 1014.0
20260505060521 59 162 1.0 4.0 0.00 0.00 0.00 56 1014.2
20260505060438 60 196 1.0 5.0 0.00 0.00 0.00 56 1016.1
20260505060045 60 175 2.0 4.0 0.00 0.00 0.00 56 1014.2
20260505055521 60 0 2.0 7.0 0.00 0.00 0.00 55 1014.1
20260505055459 61 187 1.0 5.0 0.00 0.00 0.00 55 1016.1
20260505055020 60 166 2.0 7.0 0.00 0.00 0.00 54 1014.1
20260505054549 60 149 1.0 6.0 0.00 0.00 0.00 54 1014.1
20260505054452 61 141 1.0 4.0 0.00 0.00 0.00 54 1016.1
20260505054017 61 165 2.0 6.0 0.00 0.00 0.00 53 1014.1
20260505053520 61 193 2.0 7.0 0.00 0.00 0.00 52 1014.1
20260505053430 62 178 2.0 8.0 0.00 0.00 0.00 52 1016.1
20260505053036 61 205 3.0 9.0 0.00 0.00 0.00 52 1014.1
20260505052521 61 154 4.0 9.0 0.00 0.00 0.00 52 1014.1
20260505052436 62 160 3.0 8.0 0.00 0.00 0.00 52 1016.0
20260505052021 61 0 3.0 8.0 0.00 0.00 0.00 52 1014.1
20260505051542 61 147 2.0 7.0 0.00 0.00 0.00 52 1014.1
20260505051422 62 159 2.0 7.0 0.00 0.00 0.00 52 1016.1
20260505051021 61 168 3.0 7.0 0.00 0.00 0.00 51 1014.1
20260505050520 62 164 2.0 8.0 0.00 0.00 0.00 51 1014.1
20260505041539 62 203 2.0 10.0 0.00 0.00 0.00 49 1014.1
20260505041239 63 147 2.0 6.0 0.00 0.00 0.00 49 1016.2
20260505041021 62 146 2.0 7.0 0.00 0.00 0.00 49 1014.2
20260505040521 62 135 3.0 7.0 0.00 0.00 0.00 49 1014.1
20260505040228 62 139 1.0 6.0 0.00 0.00 0.00 50 1016.2
20260505040037 62 208 2.0 6.0 0.00 0.00 0.00 50 1014.1
20260505035524 61 188 2.0 6.0 0.00 0.00 0.00 51 1014.1
20260505035242 61 163 1.0 5.0 0.00 0.00 0.00 52 1016.3
20260505035021 61 168 1.0 5.0 0.00 0.00 0.00 51 1014.2
20260505034542 61 149 1.0 5.0 0.00 0.00 0.00 50 1014.3
20260505034207 62 196 0.0 0.0 0.00 0.00 0.00 50 1016.2
20260505034021 62 0 0.0 2.0 0.00 0.00 0.00 50 1014.3
20260505033523 63 196 0.0 4.0 0.00 0.00 0.00 48 1014.2
20260505033149 64 196 1.0 3.0 0.00 0.00 0.00 48 1016.3
20260505033043 63 197 1.0 6.0 0.00 0.00 0.00 48 1014.2
20260505032521 63 199 2.0 6.0 0.00 0.00 0.00 47 1014.3
20260505032206 64 171 1.0 5.0 0.00 0.00 0.00 47 1016.4
20260505032020 64 159 1.0 6.0 0.00 0.00 0.00 47 1014.2
20260505031553 64 186 1.0 6.0 0.00 0.00 0.00 46 1014.2
20260505031223 65 154 1.0 5.0 0.00 0.00 0.00 46 1016.4
20260505031022 64 166 1.0 4.0 0.00 0.00 0.00 46 1014.3
20260505030521 64 133 2.0 4.0 0.00 0.00 0.00 46 1014.3
20260505030235 65 144 1.0 3.0 0.00 0.00 0.00 45 1016.3
20260505030045 64 157 1.0 5.0 0.00 0.00 0.00 45 1014.3
20260505025522 64 193 2.0 5.0 0.00 0.00 0.00 45 1014.3
20260505025251 65 169 1.0 5.0 0.00 0.00 0.00 45 1016.3
20260505025021 64 193 2.0 6.0 0.00 0.00 0.00 45 1014.3
20260505024546 64 174 1.0 6.0 0.00 0.00 0.00 45 1014.3
20260505024234 65 147 1.0 5.0 0.00 0.00 0.00 45 1016.3
20260505024024 65 227 1.0 7.0 0.00 0.00 0.00 45 1014.3
20260505023521 65 150 3.0 7.0 0.00 0.00 0.00 45 1014.2
20260505023041 65 0 1.0 4.0 0.00 0.00 0.00 45 1014.2
20260505022521 65 129 1.0 6.0 0.00 0.00 0.00 44 1014.2
20260505022021 65 143 2.0 6.0 0.00 0.00 0.00 43 1014.2
20260505021542 66 153 1.0 6.0 0.00 0.00 0.00 43 1014.1
20260505021023 66 134 2.0 6.0 0.00 0.00 0.00 43 1014.2
20260505020521 66 133 2.0 6.0 0.00 0.00 0.00 43 1014.0
20260505020042 66 145 2.0 5.0 0.00 0.00 0.00 43 1014.1
20260505015856 66 137 1.0 2.0 0.00 0.00 0.00 44 1016.1
20260505015521 66 171 2.0 6.0 0.00 0.00 0.00 44 1014.1
20260505015019 66 178 1.0 6.0 0.00 0.00 0.00 44 1014.0
20260505014913 67 189 1.0 5.0 0.00 0.00 0.00 44 1016.1
20260505014600 67 171 2.0 6.0 0.00 0.00 0.00 43 1014.1
20260505014023 67 202 2.0 8.0 0.00 0.00 0.00 43 1014.0
20260505013938 67 177 2.0 7.0 0.00 0.00 0.00 43 1016.0
20260505013521 67 167 3.0 8.0 0.00 0.00 0.00 43 1013.9
20260505013042 66 206 3.0 8.0 0.00 0.00 0.00 44 1013.8
20260505012954 67 161 2.0 7.0 0.00 0.00 0.00 44 1015.8
20260505012521 65 147 3.0 7.0 0.00 0.00 0.00 47 1013.7
20260505012021 65 158 1.0 3.0 0.00 0.00 0.00 48 1013.7
20260505011934 65 164 1.0 3.0 0.00 0.00 0.00 48 1015.8
20260505011545 65 125 1.0 4.0 0.00 0.00 0.00 48 1013.6
20260505011021 66 160 1.0 4.0 0.00 0.00 0.00 46 1013.6
20260505010521 66 145 2.0 5.0 0.00 0.00 0.00 47 1013.6
20260505010045 66 162 1.0 6.0 0.00 0.00 0.00 46 1013.5
20260505005521 67 194 2.0 6.0 0.00 0.00 0.00 45 1013.4
20260505005021 67 201 2.0 7.0 0.00 0.00 0.00 44 1013.5
20260505004758 68 164 1.0 6.0 0.00 0.00 0.00 44 1015.5
20260505004541 67 124 2.0 7.0 0.00 0.00 0.00 44 1013.4
20260505004021 67 147 2.0 7.0 0.00 0.00 0.00 45 1013.3
20260505003801 68 149 1.0 6.0 0.00 0.00 0.00 45 1015.3
20260505003525 67 172 1.0 4.0 0.00 0.00 0.00 45 1013.3
20260505003042 67 123 2.0 4.0 0.00 0.00 0.00 45 1013.2
20260505002747 68 156 1.0 2.0 0.00 0.00 0.00 44 1015.3
20260505002521 68 149 1.0 4.0 0.00 0.00 0.00 45 1013.3
20260505002022 69 153 1.0 3.0 0.00 0.00 0.00 44 1013.2
20260505001749 70 139 0.0 2.0 0.00 0.00 0.00 42 1015.3
20260505001545 70 139 1.0 3.0 0.00 0.00 0.00 42 1013.2
20260505001020 70 172 0.0 3.0 0.00 0.00 0.00 41 1013.2
20260505000810 71 189 1.0 4.0 0.00 0.00 0.00 41 1015.2
20260505000521 71 187 2.0 5.0 0.00 0.00 0.00 40 1013.2
20260505000044 71 171 1.0 5.0 0.00 0.00 0.00 39 1013.2
20260504235739 72 145 1.0 4.0 0.00 0.00 0.00 39 1015.1
20260504235521 72 159 2.0 4.0 0.00 0.00 0.00 39 1013.2
20260504235021 72 126 1.0 4.0 0.00 0.00 0.00 39 1013.0
20260504234754 73 156 1.0 11.0 0.00 0.00 0.00 38 1015.1
20260504234535 72 178 1.0 9.0 0.00 0.00 0.00 38 1013.1
20260504234021 73 175 2.0 12.0 0.00 0.00 0.00 37 1012.9
20260504233813 73 185 3.0 11.0 0.00 0.00 0.00 37 1014.9
20260504233520 73 149 1.0 12.0 0.00 0.00 0.00 38 1012.9
20260504233034 74 195 4.0 9.0 0.00 0.00 0.00 37 1012.9
20260504232818 74 93 3.0 7.0 0.00 0.00 0.00 37 1014.8
20260504232521 74 156 4.0 9.0 0.00 0.00 0.00 37 1012.8
20260504232020 74 156 3.0 8.0 0.00 0.00 0.00 36 1012.8
20260504231820 75 154 3.0 10.0 0.00 0.00 0.00 36 1014.7
20260504231541 75 181 3.0 11.0 0.00 0.00 0.00 35 1012.7
20260504231021 75 220 5.0 11.0 0.00 0.00 0.00 35 1012.8
20260504230823 76 178 3.0 10.0 0.00 0.00 0.00 35 1014.7
20260504230521 75 264 4.0 9.0 0.00 0.00 0.00 35 1012.8
20260504230046 75 114 2.0 8.0 0.00 0.00 0.00 35 1012.8
20260504225816 76 177 2.0 7.0 0.00 0.00 0.00 35 1014.7
20260504225522 76 156 3.0 8.0 0.00 0.00 0.00 35 1012.7
20260504225021 76 214 2.0 12.0 0.00 0.00 0.00 34 1012.7
20260504224822 76 193 4.0 16.0 0.00 0.00 0.00 34 1014.8
20260504224545 76 149 4.0 17.0 0.00 0.00 0.00 34 1012.8
20260504224021 76 222 5.0 17.0 0.00 0.00 0.00 34 1012.8
20260504223521 76 114 3.0 12.0 0.00 0.00 0.00 35 1012.8
20260504223040 77 157 6.0 12.0 0.00 0.00 0.00 35 1012.9
20260504222638 77 206 4.0 11.0 0.00 0.00 0.00 35 1014.9
20260504222521 77 242 5.0 12.0 0.00 0.00 0.00 34 1012.7
20260504222023 77 217 6.0 12.0 0.00 0.00 0.00 35 1012.8
20260504221646 78 177 4.0 11.0 0.00 0.00 0.00 35 1014.9
20260504221544 77 204 3.0 12.0 0.00 0.00 0.00 34 1012.8
20260504221022 78 194 4.0 12.0 0.00 0.00 0.00 34 1012.8
20260504220522 78 150 7.0 12.0 0.00 0.00 0.00 33 1012.9
20260504220045 78 201 2.0 10.0 0.00 0.00 0.00 33 1012.9
20260504215548 79 160 3.0 14.0 0.00 0.00 0.00 34 1014.8
20260504215522 78 154 3.0 10.0 0.00 0.00 0.00 34 1012.8
20260504215022 78 239 3.0 15.0 0.00 0.00 0.00 34 1012.8
20260504214612 78 182 6.0 14.0 0.00 0.00 0.00 34 1014.9
20260504214546 78 164 6.0 15.0 0.00 0.00 0.00 34 1012.9
20260504214024 78 162 6.0 14.0 0.00 0.00 0.00 34 1012.9
20260504213605 79 194 5.0 11.0 0.00 0.00 0.00 34 1014.9
20260504213522 78 207 5.0 13.0 0.00 0.00 0.00 34 1012.8
20260504213042 78 151 5.0 13.0 0.00 0.00 0.00 34 1012.9
20260504212522 78 176 6.0 13.0 0.00 0.00 0.00 33 1012.9
20260504212024 79 261 5.0 11.0 0.00 0.00 0.00 34 1012.8
20260504211540 79 187 4.0 11.0 0.00 0.00 0.00 34 1012.8
20260504211425 79 195 3.0 9.0 0.00 0.00 0.00 34 1014.8
20260504211022 79 177 4.0 10.0 0.00 0.00 0.00 33 1012.8
20260504210522 79 176 3.0 11.0 0.00 0.00 0.00 35 1013.0
20260504210450 79 248 4.0 12.0 0.00 0.00 0.00 35 1014.9
20260504210054 78 178 5.0 11.0 0.00 0.00 0.00 35 1012.8
20260504205521 79 232 3.0 17.0 0.00 0.00 0.00 34 1012.8
20260504205453 79 266 4.0 12.0 0.00 0.00 0.00 34 1014.8
20260504205022 79 166 7.0 17.0 0.00 0.00 0.00 35 1012.9
20260504204558 79 153 3.0 12.0 0.00 0.00 0.00 34 1012.9
20260504204511 79 241 4.0 11.0 0.00 0.00 0.00 34 1014.9
20260504204022 79 176 6.0 13.0 0.00 0.00 0.00 35 1012.9
20260504203522 79 182 4.0 14.0 0.00 0.00 0.00 35 1013.0
20260504203455 79 141 4.0 11.0 0.00 0.00 0.00 35 1014.9
20260504203059 79 170 5.0 14.0 0.00 0.00 0.00 35 1013.0
20260504202522 79 265 2.0 10.0 0.00 0.00 0.00 36 1013.0
20260504202452 79 226 4.0 8.0 0.00 0.00 0.00 36 1015.0
20260504202022 79 239 4.0 12.0 0.00 0.00 0.00 35 1013.1
20260504201542 78 269 3.0 12.0 0.00 0.00 0.00 35 1013.1
20260504201517 79 258 5.0 13.0 0.00 0.00 0.00 35 1015.1
20260504201021 79 191 7.0 14.0 0.00 0.00 0.00 34 1013.2
20260504200522 78 153 6.0 14.0 0.00 0.00 0.00 35 1013.2
20260504200041 78 168 5.0 13.0 0.00 0.00 0.00 36 1013.2
20260504195526 78 237 6.0 13.0 0.00 0.00 0.00 35 1013.4
20260504195449 79 255 5.0 12.0 0.00 0.00 0.00 35 1015.3
20260504195022 79 212 6.0 13.0 0.00 0.00 0.00 36 1013.5
20260504194540 78 149 4.0 13.0 0.00 0.00 0.00 35 1013.4
20260504194426 79 176 4.0 12.0 0.00 0.00 0.00 36 1015.5
20260504194023 78 140 5.0 10.0 0.00 0.00 0.00 36 1013.6
20260504193525 79 183 2.0 15.0 0.00 0.00 0.00 37 1013.6
20260504193413 79 214 4.0 11.0 0.00 0.00 0.00 36 1015.6
20260504193040 78 127 7.0 15.0 0.00 0.00 0.00 34 1013.6
20260504192521 78 182 4.0 10.0 0.00 0.00 0.00 35 1013.7
20260504192422 78 144 4.0 10.0 0.00 0.00 0.00 35 1015.7
20260504192022 78 210 2.0 13.0 0.00 0.00 0.00 37 1013.7
20260504191547 78 149 8.0 13.0 0.00 0.00 0.00 36 1014.0
20260504191446 78 191 4.0 10.0 0.00 0.00 0.00 36 1016.0
20260504191025 78 210 3.0 11.0 0.00 0.00 0.00 38 1013.9
20260504190522 78 222 4.0 10.0 0.00 0.00 0.00 36 1013.9
20260504190505 78 183 3.0 8.0 0.00 0.00 0.00 36 1016.0
20260504190035 77 309 4.0 9.0 0.00 0.00 0.00 36 1014.0
20260504185521 77 214 3.0 12.0 0.00 0.00 0.00 36 1014.2
20260504185459 78 220 4.0 10.0 0.00 0.00 0.00 36 1016.2
20260504185022 77 185 4.0 12.0 0.00 0.00 0.00 37 1014.3
20260504184543 77 162 5.0 12.0 0.00 0.00 0.00 37 1014.3
20260504184458 78 231 3.0 10.0 0.00 0.00 0.00 37 1016.4
20260504184022 77 256 5.0 11.0 0.00 0.00 0.00 36 1014.3
20260504183524 77 178 3.0 11.0 0.00 0.00 0.00 38 1014.3
20260504183450 78 191 3.0 13.0 0.00 0.00 0.00 37 1016.4
20260504183042 76 200 3.0 12.0 0.00 0.00 0.00 38 1014.4
20260504182521 77 359 3.0 14.0 0.00 0.00 0.00 36 1014.4
20260504182449 77 274 4.0 13.0 0.00 0.00 0.00 38 1016.5
20260504182021 77 208 5.0 14.0 0.00 0.00 0.00 37 1014.5
20260504181542 76 274 4.0 10.0 0.00 0.00 0.00 37 1014.5
20260504181458 77 271 4.0 9.0 0.00 0.00 0.00 37 1016.6
20260504181024 76 211 5.0 10.0 0.00 0.00 0.00 37 1014.6
20260504180521 76 197 4.0 11.0 0.00 0.00 0.00 38 1014.5
20260504180445 76 205 3.0 11.0 0.00 0.00 0.00 38 1016.7
20260504180040 76 309 2.0 13.0 0.00 0.00 0.00 38 1014.5
20260504175522 76 189 3.0 13.0 0.00 0.00 0.00 38 1014.5
20260504175434 76 145 3.0 11.0 0.00 0.00 0.00 38 1016.6
20260504175022 76 212 5.0 11.0 0.00 0.00 0.00 37 1014.7
20260504174537 75 194 1.0 11.0 0.00 0.00 0.00 39 1014.7
20260504174438 75 34 4.0 10.0 0.00 0.00 0.00 39 1016.8
20260504174022 75 186 5.0 11.0 0.00 0.00 0.00 39 1014.8
20260504173521 75 249 4.0 11.0 0.00 0.00 0.00 38 1014.8
20260504173406 75 182 3.0 9.0 0.00 0.00 0.00 38 1016.9
20260504173039 74 218 1.0 11.0 0.00 0.00 0.00 41 1014.9
20260504172522 74 266 4.0 11.0 0.00 0.00 0.00 39 1014.9
20260504172344 75 172 4.0 10.0 0.00 0.00 0.00 39 1017.0
20260504172022 74 153 2.0 11.0 0.00 0.00 0.00 40 1015.0
20260504171541 74 263 5.0 11.0 0.00 0.00 0.00 39 1015.1
20260504171318 74 239 4.0 10.0 0.00 0.00 0.00 38 1017.0
20260504171027 74 185 5.0 11.0 0.00 0.00 0.00 39 1015.0
20260504170524 74 237 5.0 11.0 0.00 0.00 0.00 39 1015.2
20260504170256 74 241 4.0 10.0 0.00 0.00 0.00 40 1017.2
20260504160157 72 256 4.0 10.0 0.00 0.00 0.00 41 1018.1
20260504151036 70 343 3.0 12.0 0.00 0.00 0.00 40 1018.6
20260504151022 69 53 2.0 11.0 0.00 0.00 0.00 40 1016.5
20260504150521 69 183 3.0 14.0 0.00 0.00 0.00 41 1016.5
20260504141021 65 353 3.0 10.0 0.00 0.00 0.00 49 1016.3
20260504141017 66 353 2.0 8.0 0.00 0.00 0.00 48 1018.4
20260504140521 64 186 2.0 5.0 0.00 0.00 0.00 52 1016.3
20260504130703 59 136 1.0 3.0 0.00 0.00 0.00 67 1018.6
20260504130525 58 150 1.0 6.0 0.00 0.00 0.00 66 1016.5
20260504110521 39 0 0.0 1.0 0.00 0.00 0.00 89 1016.3
20260504110414 39 129 0.0 0.0 0.00 0.00 0.00 89 1018.4
20260504100521 38 0 0.0 0.0 0.00 0.00 0.00 89 1016.4
20260504100236 39 285 0.0 0.0 0.00 0.00 0.00 89 1018.5
20260504090141 39 285 0.0 0.0 0.00 0.00 0.00 88 1018.5
20260504081544 39 0 0.0 0.0 0.00 0.00 0.00 88 1016.4
20260504081052 39 285 0.0 0.0 0.00 0.00 0.00 88 1018.4
20260504081021 39 0 0.0 0.0 0.00 0.00 0.00 88 1016.3
20260504080522 39 0 0.0 0.0 0.00 0.00 0.00 88 1016.2